(146185) = 2000 SD338 = 2005 QR

Discovered at Haleakala on 2000-09-25 by NEAT.

Orbit

Orbit type: Main Belt

Note: WebGL enabled browser required.

epoch2024-03-31.0
epoch JD2460400.5
perihelion date2022-09-07.27084
perihelion JD2459829.77084
argument of perihelion (°)235.98879
ascending node (°)142.82642
inclination (°)23.07140
eccentricity0.0957161
perihelion distance (AU)2.7993124
Tisserand w.r.t. Jupiter3.1
ΔV w.r.t. Earth (km/sec)12.7
semimajor axis (AU)3.0956124
mean anomaly (°)103.27948
mean daily motion (°/day)0.18096060
aphelion distance (AU)3.392
period (years)5.45
P-vector [x]0.90650312
P-vector [y]0.37664789
P-vector [z]-0.19075760
Q-vector [x]-0.34954963
Q-vector [y]0.92294087
Q-vector [z]0.16123031
absolute magnitude14.88
phase slope0.15
uncertainty0
referenceMPEC 2024-C60
observations used641
oppositions18
arc length (days)9859
first opposition used1997
last opposition used2024
residual rms (arc-secs)0.77
perturbers coarse indicatorM-v
perturbers precise indicator003Ek
first observation date used1997-02-07.0
last observation date used2024-02-05.0
computer nameMPCLINUX
JD of orbit computation2456819.443316
perihelion JD uncertainty (days)2.2861E-04
argument of perihelion uncertainty (°)4.2284E-05
ascending node uncertainty (°)1.8748E-05
inclination uncertainty (°)8.7303E-06
eccentricity uncertainty 7.7575E-08
perihelion distance uncertainty (AU)2.4203E-07
Minimum Orbit Intersection Distances (in AU)
for orbit epoch: 2460400.5, reference: E2024-GD4
Mercury2.45142
Venus2.10113
Earth1.84854
Mars1.47652
Jupiter2.10329
Saturn5.9801
Uranus15.1441
Neptune27.1038

Observations

661 total observations over interval: 1997 02 07.33063 – 2024 02 05.173955
These data are available for download (format description).

Date (UT) J2000 RA J2000 Dec Magn Location Ref
1997 02 07.33063 09 24 42.76 +12 40 13.2 19.6 V 691 – Steward Observatory, Kitt Peak-Spacewatch MPS 139572
1997 02 07.35238 09 24 41.72 +12 40 26.2 19.6 V 691 – Steward Observatory, Kitt Peak-Spacewatch MPS 139572
1997 02 07.37400 09 24 40.70 +12 40 38.6 19.4 V 691 – Steward Observatory, Kitt Peak-Spacewatch MPS 139572
2000 09 25.38981 00 51 21.75 -20 00 37.2 20.0   608 – Haleakala-AMOS MPS 21438
2000 09 25.40027 00 51 21.33 -20 00 43.8 20.5   608 – Haleakala-AMOS MPS 21438
2000 09 25.41125 00 51 20.88 -20 00 50.8 20.1   608 – Haleakala-AMOS MPS 21438
2000 09 29.26958 00 48 47.91 -20 40 31.2 18.5 R 699 – Lowell Observatory-LONEOS MPS 26688
2000 09 29.27891 00 48 47.54 -20 40 35.6   699 – Lowell Observatory-LONEOS MPS 26688
2000 09 29.28826 00 48 47.04 -20 40 41.7   699 – Lowell Observatory-LONEOS MPS 26688
2000 09 29.29753 00 48 46.69 -20 40 47.4   699 – Lowell Observatory-LONEOS MPS 26688
2000 10 02.27714 00 46 45.80 -21 09 07.8 18.4 R 699 – Lowell Observatory-LONEOS MPS 21438
2000 10 02.29636 00 46 44.93 -21 09 17.0   699 – Lowell Observatory-LONEOS MPS 21438
2000 10 02.31558 00 46 44.02 -21 09 27.4   699 – Lowell Observatory-LONEOS MPS 21438
2000 10 02.33492 00 46 43.26 -21 09 37.7   699 – Lowell Observatory-LONEOS MPS 21438
2005 06 29.45688 21 57 36.22 -06 46 05.1 19.8   644 – Palomar Mountain/NEAT MPS 139572
2005 06 29.46810 21 57 36.20 -06 46 08.4 19.7   644 – Palomar Mountain/NEAT MPS 139572
2005 06 29.47973 21 57 36.17 -06 46 12.2 19.6   644 – Palomar Mountain/NEAT MPS 139572
2005 07 11.36955 21 55 47.28 -07 58 03.9 19.6 V 703 – Catalina Sky Survey MPS 139572
2005 07 11.37782 21 55 47.17 -07 58 06.4 20.4 V 703 – Catalina Sky Survey MPS 139572
2005 07 11.38603 21 55 46.95 -07 58 11.9 20.7 V 703 – Catalina Sky Survey MPS 139572
2005 07 11.39428 21 55 46.70 -07 58 14.7 20.0 V 703 – Catalina Sky Survey MPS 139572
2005 08 06.22009 21 42 54.91 -11 57 03.7 18.9   704 – Lincoln Laboratory ETS, New Mexico MPS 139572
2005 08 06.23195 21 42 54.44 -11 57 12.5 19.3   704 – Lincoln Laboratory ETS, New Mexico MPS 139572
2005 08 06.24382 21 42 53.99 -11 57 19.8 18.9   704 – Lincoln Laboratory ETS, New Mexico MPS 139572
2005 08 06.25560 21 42 53.48 -11 57 27.5 19.1   704 – Lincoln Laboratory ETS, New Mexico MPS 139572
2005 08 06.35526 21 42 49.32 -11 58 32.7 18.6   644 – Palomar Mountain/NEAT MPS 139572
2005 08 06.37617 21 42 48.45 -11 58 46.2 18.6   644 – Palomar Mountain/NEAT MPS 139572
2005 08 06.40162 21 42 47.38 -11 59 02.6 18.6   644 – Palomar Mountain/NEAT MPS 139572
2005 08 15.63022 21 36 19.18 -13 41 02.0 18.4 V E12 – Siding Spring Survey MPS 139572
2005 08 15.63927 21 36 18.72 -13 41 08.3 18.2 V E12 – Siding Spring Survey MPS 139572
2005 08 15.64821 21 36 18.25 -13 41 13.6 18.3 V E12 – Siding Spring Survey MPS 139572
2005 08 15.65737 21 36 17.96 -13 41 20.2 18.4 V E12 – Siding Spring Survey MPS 139572
2005 08 22.28192 21 31 34.91 -14 54 55.8 18.9   644 – Palomar Mountain/NEAT MPS 139706
2005 08 22.30321 21 31 33.95 -14 55 09.9 18.9   644 – Palomar Mountain/NEAT MPS 139706
2005 08 22.32388 21 31 33.06 -14 55 23.6 18.8   644 – Palomar Mountain/NEAT MPS 139706
2005 08 25.32850 21 29 27.89 -15 28 08.0 18.9   644 – Palomar Mountain/NEAT MPS 139572
2005 08 25.35033 21 29 26.93 -15 28 22.0 18.8   644 – Palomar Mountain/NEAT MPS 139572
2005 08 25.37963 21 29 25.70 -15 28 40.8 18.6   644 – Palomar Mountain/NEAT MPS 139572
2005 08 26.27180 21 28 49.29 -15 38 17.5 18.8 R 699 – Lowell Observatory-LONEOS MPS 139706
2005 08 26.30317 21 28 47.97 -15 38 37.8   699 – Lowell Observatory-LONEOS MPS 139706
2005 08 26.32203 21 28 47.21 -15 38 47.0   699 – Lowell Observatory-LONEOS MPS 139706
2005 08 26.34105 21 28 46.42 -15 39 00.8   699 – Lowell Observatory-LONEOS MPS 139706
2005 08 27.66565 21 27 52.99 -15 53 04.4 18.6 V E12 – Siding Spring Survey MPS 140039
2005 08 27.67346 21 27 52.66 -15 53 09.0 18.5 V E12 – Siding Spring Survey MPS 140039
2005 08 27.68132 21 27 52.41 -15 53 14.8 18.2 V E12 – Siding Spring Survey MPS 140039
2005 08 27.68909 21 27 52.05 -15 53 19.4 18.2 V E12 – Siding Spring Survey MPS 140039
2005 08 29.18946 21 26 53.00 -16 09 11.9 19.2   704 – Lincoln Laboratory ETS, New Mexico MPS 140039
2005 08 29.21201 21 26 52.17 -16 09 28.0 19.1   704 – Lincoln Laboratory ETS, New Mexico MPS 140039
2005 08 29.22325 21 26 51.68 -16 09 34.6 19.1   704 – Lincoln Laboratory ETS, New Mexico MPS 140039
2005 08 29.23450 21 26 51.18 -16 09 41.9 19.2   704 – Lincoln Laboratory ETS, New Mexico MPS 140039
2006 10 21.41098 04 50 54.20 -09 41 27.9 19.2 V 703 – Catalina Sky Survey MPS 183888
2006 10 21.42215 04 50 54.06 -09 41 33.0 19.7 V 703 – Catalina Sky Survey MPS 183888
2006 10 21.43346 04 50 53.84 -09 41 38.1 20.5 V 703 – Catalina Sky Survey MPS 183888
2006 10 21.44478 04 50 53.73 -09 41 42.7 19.1 V 703 – Catalina Sky Survey MPS 183888
2006 11 01.36757 04 46 45.73 -10 59 20.6 19.5 V 703 – Catalina Sky Survey MPS 185234
2006 11 01.37462 04 46 45.51 -10 59 23.6 19.1 V 703 – Catalina Sky Survey MPS 185234
2006 11 01.38168 04 46 45.30 -10 59 26.1 19.4 V 703 – Catalina Sky Survey MPS 185234
2006 11 01.38874 04 46 45.04 -10 59 28.8 19.4 V 703 – Catalina Sky Survey MPS 185234
2006 11 18.33916 04 35 39.58 -12 18 07.3 19.1 V 703 – Catalina Sky Survey MPS 188353
2006 11 18.34565 04 35 39.26 -12 18 08.0 18.9 V 703 – Catalina Sky Survey MPS 188353
2006 11 18.35215 04 35 39.01 -12 18 09.6 19.1 V 703 – Catalina Sky Survey MPS 188353
2006 11 18.35867 04 35 38.68 -12 18 10.6 19.0 V 703 – Catalina Sky Survey MPS 188353
2006 11 24.31995 04 30 52.52 -12 29 08.1 19.3 V 703 – Catalina Sky Survey MPS 190284
2006 11 24.32646 04 30 52.27 -12 29 08.5 19.1 V 703 – Catalina Sky Survey MPS 190284
2006 11 24.33296 04 30 51.84 -12 29 08.5 19.2 V 703 – Catalina Sky Survey MPS 190284
2006 11 24.33947 04 30 51.51 -12 29 08.5 19.2 V 703 – Catalina Sky Survey MPS 190284
2006 12 15.25124 04 14 13.23 -11 47 14.9 19.4 V 703 – Catalina Sky Survey MPS 191805
2006 12 15.25722 04 14 12.98 -11 47 14.0 19.1 V 703 – Catalina Sky Survey MPS 191805
2006 12 15.26322 04 14 12.62 -11 47 10.8 19.8 V 703 – Catalina Sky Survey MPS 191805
2006 12 15.26920 04 14 12.55 -11 47 09.3 18.9 V 703 – Catalina Sky Survey MPS 191805
2006 12 22.24401 04 09 38.41 -11 06 46.5 19.1 V 703 – Catalina Sky Survey MPS 191805
2006 12 22.25221 04 09 38.05 -11 06 44.6 19.3 V 703 – Catalina Sky Survey MPS 191805
2006 12 22.26038 04 09 37.80 -11 06 40.3 19.0 V 703 – Catalina Sky Survey MPS 191805
2006 12 22.26858 04 09 37.40 -11 06 33.8 18.3 V 703 – Catalina Sky Survey MPS 191805
2007 12 31.41302 10 17 50.46 +08 11 53.6 20.0 V G96 – Mt. Lemmon Survey MPS 233236
2007 12 31.42848 10 17 50.38 +08 11 58.4 20.2 V G96 – Mt. Lemmon Survey MPS 233236
2007 12 31.43631 10 17 50.35 +08 12 00.9 20.1 V G96 – Mt. Lemmon Survey MPS 233236
2008 02 02.31558 10 04 46.30 +12 24 21.1 19.5 V G96 – Mt. Lemmon Survey MPS 237257
2008 02 02.32115 10 04 46.09 +12 24 24.4 19.5 V G96 – Mt. Lemmon Survey MPS 237257
2008 02 02.32668 10 04 45.87 +12 24 27.6 19.5 V G96 – Mt. Lemmon Survey MPS 237257
2008 02 02.33236 10 04 45.62 +12 24 30.9 19.5 V G96 – Mt. Lemmon Survey MPS 237257
2008 02 03.37709 10 04 03.39 +12 34 35.0 20.0 V 703 – Catalina Sky Survey MPS 237257
2008 02 03.38317 10 04 03.21 +12 34 38.4 19.3 V 703 – Catalina Sky Survey MPS 237257
2008 02 03.38928 10 04 02.96 +12 34 42.5 19.3 V 703 – Catalina Sky Survey MPS 237257
2008 02 03.39534 10 04 02.67 +12 34 44.7 19.2 V 703 – Catalina Sky Survey MPS 237257
2008 02 06.33839 10 02 00.78 +13 03 28.7 19.4 r 699 – Lowell Observatory-LONEOS MPS 237257
2008 02 06.36403 10 01 59.65 +13 03 42.1 19.5 r 699 – Lowell Observatory-LONEOS MPS 237257
2008 02 06.38966 10 01 58.60 +13 03 57.6 19.6 r 699 – Lowell Observatory-LONEOS MPS 237257
2008 02 06.41530 10 01 57.48 +13 04 12.3 19.6 r 699 – Lowell Observatory-LONEOS MPS 237257
2008 02 09.00601 10 00 06.61 +13 29 44.5 19.2   224 – Ottmarsheim MPS 239036
2008 02 09.02504 10 00 05.83 +13 29 56.1 18.6   224 – Ottmarsheim MPS 239036
2008 02 09.04410 10 00 04.86 +13 30 06.4 19.1   224 – Ottmarsheim MPS 239036
2008 02 10.28523 09 59 10.75 +13 42 24.3 19.4 V 703 – Catalina Sky Survey MPS 239036
2008 02 10.29196 09 59 10.46 +13 42 28.8 19.1 V 703 – Catalina Sky Survey MPS 239036
